| time (UTC) | temp F | wind direction | speed knots | gust knots | rain 1hr in | rain 24hr in | rain mn in | humidity % | barometer mb |
| 20260505193949 | 82 | 163 | 6.1 | 12.2 | 0.00 | 0.00 | 0.00 | 35 | 1007.8 |
| 20260505192940 | 82 | 221 | 2.6 | 9.6 | 0.00 | 0.00 | 0.00 | 36 | 1007.6 |
| 20260505185939 | 83 | 192 | 5.2 | 10.4 | 0.00 | 0.00 | 0.00 | 35 | 1007.8 |
| 20260505182954 | 82 | 283 | 4.3 | 13.9 | 0.00 | 0.00 | 0.00 | 36 | 1008.3 |
| 20260505181944 | 82 | 229 | 4.3 | 10.4 | 0.00 | 0.00 | 0.00 | 35 | 1008.5 |
| 20260505180954 | 83 | 200 | 6.1 | 11.3 | 0.00 | 0.00 | 0.00 | 34 | 1008.7 |
| 20260505175944 | 82 | 209 | 5.2 | 10.4 | 0.00 | 0.00 | 0.00 | 39 | 1008.6 |
| 20260505173945 | 82 | 242 | 5.2 | 7.8 | 0.00 | 0.00 | 0.00 | 42 | 1008.9 |
| 20260505172939 | 81 | 192 | 2.6 | 8.7 | 0.00 | 0.00 | 0.00 | 45 | 1008.9 |
| 20260505171949 | 81 | 214 | 3.5 | 9.6 | 0.00 | 0.00 | 0.00 | 44 | 1008.9 |
| 20260505170939 | 81 | 173 | 2.6 | 6.1 | 0.00 | 0.00 | 0.00 | 45 | 1009.1 |
| 20260505164939 | 80 | 210 | 3.5 | 7.8 | 0.00 | 0.00 | 0.00 | 46 | 1009.4 |
| 20260505162939 | 79 | 228 | 1.7 | 5.2 | 0.00 | 0.00 | 0.00 | 50 | 1009.5 |
| 20260505161949 | 79 | 246 | 2.6 | 8.7 | 0.00 | 0.00 | 0.00 | 47 | 1009.7 |
| 20260505160938 | 78 | 200 | 1.7 | 5.2 | 0.00 | 0.00 | 0.00 | 49 | 1010.0 |
| 20260505151953 | 75 | 179 | 3.5 | 5.2 | 0.00 | 0.00 | 0.00 | 56 | 1010.3 |
| 20260505150944 | 74 | 216 | 2.6 | 5.2 | 0.00 | 0.00 | 0.00 | 56 | 1010.4 |
| 20260505124935 | 64 | 191 | 0.9 | 5.2 | 0.00 | 0.00 | 0.00 | 73 | 1011.0 |
| 20260505123945 | 63 | 202 | 2.6 | 7.8 | 0.00 | 0.00 | 0.00 | 74 | 1011.1 |
| 20260505122939 | 62 | 185 | 1.7 | 4.3 | 0.00 | 0.00 | 0.00 | 79 | 1011.0 |
| 20260505121949 | 61 | 213 | 2.6 | 3.5 | 0.00 | 0.00 | 0.00 | 84 | 1010.8 |
| 20260505120940 | 59 | 185 | 1.7 | 3.5 | 0.00 | 0.00 | 0.00 | 89 | 1010.8 |
| 20260505115950 | 56 | 201 | 0.0 | 0.0 | 0.00 | 0.00 | 0.00 | 94 | 1010.7 |
| 20260505114940 | 55 | 38 | 0.0 | 0.0 | 0.00 | 0.00 | 0.00 | 95 | 1010.9 |
| 20260505111934 | 51 | 38 | 0.0 | 0.0 | 0.00 | 0.00 | 0.00 | 95 | 1011.2 |
| 20260505110944 | 51 | 38 | 0.0 | 0.0 | 0.00 | 0.00 | 0.00 | 94 | 1010.9 |
| 20260505101938 | 51 | 56 | 0.0 | 0.0 | 0.00 | 0.00 | 0.00 | 94 | 1010.5 |
| 20260505095937 | 49 | 56 | 0.0 | 1.7 | 0.00 | 0.00 | 0.00 | 95 | 1010.8 |
| 20260505094947 | 48 | 56 | 0.0 | 1.7 | 0.00 | 0.00 | 0.00 | 94 | 1010.8 |
| 20260505093937 | 47 | 310 | 0.0 | 0.0 | 0.00 | 0.00 | 0.00 | 93 | 1010.8 |
| 20260505092945 | 47 | 310 | 0.0 | 0.0 | 0.00 | 0.00 | 0.00 | 93 | 1010.7 |
| 20260505090951 | 47 | 310 | 0.9 | 2.6 | 0.00 | 0.00 | 0.00 | 94 | 1010.2 |
| 20260505085941 | 47 | 29 | 0.0 | 0.0 | 0.00 | 0.00 | 0.00 | 93 | 1010.3 |
| 20260505081948 | 46 | 29 | 0.0 | 0.0 | 0.00 | 0.00 | 0.00 | 92 | 1010.3 |
| 20260505080938 | 47 | 29 | 0.0 | 0.0 | 0.00 | 0.00 | 0.00 | 93 | 1010.0 |
| 20260505075948 | 47 | 29 | 0.0 | 0.0 | 0.00 | 0.00 | 0.00 | 93 | 1010.0 |
| 20260505074938 | 47 | 29 | 0.0 | 0.0 | 0.00 | 0.00 | 0.00 | 93 | 1010.0 |
| 20260505073933 | 47 | 29 | 0.0 | 0.0 | 0.00 | 0.00 | 0.00 | 93 | 1009.9 |
| 20260505071937 | 47 | 29 | 0.0 | 0.0 | 0.00 | 0.00 | 0.00 | 93 | 1010.0 |
| 20260505070947 | 46 | 29 | 0.0 | 0.0 | 0.00 | 0.00 | 0.00 | 93 | 1010.0 |
| 20260505065937 | 46 | 29 | 0.0 | 0.0 | 0.00 | 0.00 | 0.00 | 93 | 1010.0 |
| 20260505064944 | 46 | 29 | 0.0 | 0.0 | 0.00 | 0.00 | 0.00 | 92 | 1010.1 |
| 20260505063934 | 46 | 29 | 0.0 | 0.0 | 0.00 | 0.00 | 0.00 | 92 | 1010.1 |
| 20260505062944 | 46 | 29 | 0.0 | 0.0 | 0.00 | 0.00 | 0.00 | 91 | 1010.1 |
| 20260505061934 | 46 | 29 | 0.0 | 0.0 | 0.00 | 0.00 | 0.00 | 92 | 1010.1 |
| 20260505060944 | 46 | 29 | 0.0 | 0.0 | 0.00 | 0.00 | 0.00 | 92 | 1010.2 |
| 20260505055938 | 46 | 331 | 0.0 | 0.0 | 0.00 | 0.00 | 0.00 | 91 | 1010.3 |
| 20260505053940 | 46 | 331 | 0.0 | 0.0 | 0.00 | 0.00 | 0.00 | 91 | 1010.2 |
| 20260505052951 | 46 | 331 | 0.0 | 0.0 | 0.00 | 0.00 | 0.00 | 91 | 1010.3 |
| 20260505051940 | 46 | 331 | 0.0 | 0.0 | 0.00 | 0.00 | 0.00 | 90 | 1010.2 |
| 20260505040935 | 48 | 33 | 0.0 | 0.0 | 0.00 | 0.00 | 0.00 | 88 | 1010.4 |
| 20260505035943 | 48 | 33 | 0.0 | 0.0 | 0.00 | 0.00 | 0.00 | 88 | 1010.3 |
| 20260505034932 | 48 | 33 | 0.0 | 0.0 | 0.00 | 0.00 | 0.00 | 88 | 1010.3 |
| 20260505032933 | 49 | 33 | 0.0 | 0.9 | 0.00 | 0.00 | 0.00 | 88 | 1010.4 |
| 20260505031944 | 49 | 33 | 0.0 | 0.0 | 0.00 | 0.00 | 0.00 | 86 | 1010.5 |
| 20260505030933 | 49 | 33 | 0.0 | 0.0 | 0.00 | 0.00 | 0.00 | 86 | 1010.5 |
| 20260505025942 | 49 | 33 | 0.0 | 0.9 | 0.00 | 0.00 | 0.00 | 85 | 1010.4 |
| 20260505024934 | 50 | 33 | 0.0 | 0.9 | 0.00 | 0.00 | 0.00 | 85 | 1010.5 |
| 20260505023944 | 50 | 33 | 0.0 | 1.7 | 0.00 | 0.00 | 0.00 | 84 | 1010.5 |
| 20260505022933 | 51 | 33 | 0.9 | 1.7 | 0.00 | 0.00 | 0.00 | 83 | 1010.4 |
| 20260505020935 | 52 | 77 | 0.0 | 0.0 | 0.00 | 0.00 | 0.00 | 80 | 1010.5 |
| 20260505015945 | 52 | 77 | 0.0 | 0.0 | 0.00 | 0.00 | 0.00 | 78 | 1010.5 |
| 20260505012938 | 56 | 77 | 0.0 | 0.0 | 0.00 | 0.00 | 0.00 | 71 | 1010.4 |
| 20260505011948 | 57 | 77 | 0.0 | 0.0 | 0.00 | 0.00 | 0.00 | 67 | 1010.4 |
| 20260505010943 | 58 | 77 | 0.0 | 0.0 | 0.00 | 0.00 | 0.00 | 65 | 1010.2 |
| 20260505004945 | 61 | 77 | 0.0 | 1.7 | 0.00 | 0.00 | 0.00 | 58 | 1009.8 |
| 20260505003936 | 63 | 175 | 0.0 | 0.9 | 0.00 | 0.00 | 0.00 | 54 | 1009.9 |
| 20260505002945 | 64 | 175 | 0.0 | 0.9 | 0.00 | 0.00 | 0.00 | 51 | 1009.7 |
| 20260505001933 | 65 | 175 | 0.0 | 5.2 | 0.00 | 0.00 | 0.00 | 49 | 1009.5 |
| 20260505000943 | 66 | 99 | 0.9 | 3.5 | 0.00 | 0.00 | 0.00 | 48 | 1009.4 |
| 20260504235933 | 66 | 222 | 0.9 | 3.5 | 0.00 | 0.00 | 0.00 | 47 | 1009.3 |
| 20260504234941 | 66 | 136 | 1.7 | 3.5 | 0.00 | 0.00 | 0.00 | 47 | 1009.2 |
| 20260504233934 | 67 | 196 | 0.9 | 3.5 | 0.00 | 0.00 | 0.00 | 47 | 1009.0 |
| 20260504232944 | 68 | 201 | 2.6 | 6.1 | 0.00 | 0.00 | 0.00 | 45 | 1008.9 |
| 20260504231933 | 68 | 179 | 1.7 | 3.5 | 0.00 | 0.00 | 0.00 | 45 | 1008.9 |
| 20260504230942 | 69 | 199 | 2.6 | 5.2 | 0.00 | 0.00 | 0.00 | 45 | 1008.7 |
| 20260504225931 | 69 | 214 | 1.7 | 3.5 | 0.00 | 0.00 | 0.00 | 45 | 1008.6 |
| 20260504224940 | 70 | 177 | 1.7 | 5.2 | 0.00 | 0.00 | 0.00 | 43 | 1008.5 |
| 20260504223950 | 70 | 212 | 0.9 | 4.3 | 0.00 | 0.00 | 0.00 | 43 | 1008.4 |
| 20260504222939 | 70 | 265 | 2.6 | 6.1 | 0.00 | 0.00 | 0.00 | 41 | 1008.6 |
| 20260504221948 | 70 | 188 | 3.5 | 6.1 | 0.00 | 0.00 | 0.00 | 41 | 1008.7 |
| 20260504220942 | 71 | 211 | 3.5 | 6.1 | 0.00 | 0.00 | 0.00 | 40 | 1008.7 |
| 20260504215931 | 72 | 265 | 0.9 | 6.1 | 0.00 | 0.00 | 0.00 | 39 | 1008.7 |
| 20260504214941 | 72 | 257 | 1.7 | 5.2 | 0.00 | 0.00 | 0.00 | 39 | 1008.8 |
| 20260504213931 | 72 | 208 | 2.6 | 6.1 | 0.00 | 0.00 | 0.00 | 41 | 1008.8 |
| 20260504212940 | 72 | 204 | 1.7 | 6.1 | 0.00 | 0.00 | 0.00 | 39 | 1009.0 |
| 20260504211930 | 73 | 221 | 4.3 | 7.8 | 0.00 | 0.00 | 0.00 | 39 | 1009.0 |
| 20260504210942 | 73 | 265 | 3.5 | 8.7 | 0.00 | 0.00 | 0.00 | 37 | 1009.0 |
| 20260504205932 | 73 | 211 | 2.6 | 7.0 | 0.00 | 0.00 | 0.00 | 40 | 1009.1 |
| 20260504204942 | 73 | 183 | 3.5 | 6.1 | 0.00 | 0.00 | 0.00 | 38 | 1009.1 |
| 20260504203936 | 73 | 243 | 3.5 | 7.8 | 0.00 | 0.00 | 0.00 | 38 | 1009.0 |
| 20260504201938 | 73 | 265 | 3.5 | 6.1 | 0.00 | 0.00 | 0.00 | 35 | 1009.2 |
| 20260504200949 | 73 | 312 | 0.9 | 7.0 | 0.00 | 0.00 | 0.00 | 38 | 1009.3 |
| 20260504195938 | 73 | 182 | 2.6 | 6.1 | 0.00 | 0.00 | 0.00 | 39 | 1009.3 |
| 20260504194946 | 72 | 203 | 2.6 | 7.0 | 0.00 | 0.00 | 0.00 | 38 | 1009.5 |